This is the latest recevied weather packets stored in our database for station/object SLG. If no packets are shown the sender has not sent any weather packets the latest 1 day(s).
| Time | Temp. | Humidity | Pressure | Rain* | Wind** | Luminosity | Snow |
|---|---|---|---|---|---|---|---|
| 1777977131 | 16.67° C | 69% | 1005 hPa | 0 mm | 3.13 m/s, 298° | - | - |
| 1777975332 | 16.67° C | 70% | 1005.1 hPa | 0 mm | 2.24 m/s, 196° | - | - |
| 1777973532 | 16.11° C | 68% | 1005.3 hPa | 0 mm | 3.13 m/s, 192° | - | - |
| 1777971732 | 16.11° C | 69% | 1005.5 hPa | 0 mm | 0.89 m/s, 194° | - | - |
| 1777969931 | 16.11° C | 68% | 1005.5 hPa | 0 mm | 2.68 m/s, 203° | - | - |
| 1777968130 | 16.11° C | 67% | 1005.8 hPa | 0 mm | 1.79 m/s, 207° | - | - |
| 1777966330 | 15.56° C | 70% | 1005.8 hPa | 0 mm | 3.13 m/s, 198° | - | - |
| 1777964531 | 13.33° C | 83% | 1006.1 hPa | 0 mm | 1.79 m/s, 246° | - | - |
| 1777962731 | 11.67° C | 90% | 1006.2 hPa | 0 mm | 0 m/s | - | - |
| 1777960932 | 8.89° C | 89% | 1006.4 hPa | 0 mm | 0 m/s | - | - |
| 1777959131 | 7.22° C | 86% | 1006.5 hPa | 0 mm | 0 m/s | - | - |
| 1777957331 | 7.22° C | 84% | 1006.5 hPa | 0 mm | 0 m/s | - | - |
| 1777955531 | 7.22° C | 83% | 1006.6 hPa | 0 mm | 0 m/s | - | - |
| 1777953730 | 7.78° C | 82% | 1006.7 hPa | 0 mm | 0 m/s | - | - |
| 1777951931 | 7.78° C | 81% | 1006.7 hPa | 0 mm | 0 m/s | - | - |
| 1777950133 | 8.33° C | 80% | 1007 hPa | 0 mm | 0 m/s | - | - |
| 1777948331 | 8.33° C | 79% | 1007.3 hPa | 0 mm | 0 m/s | - | - |
| 1777946531 | 8.89° C | 77% | 1007.4 hPa | 0 mm | 0 m/s | - | - |
| 1777944731 | 9.44° C | 76% | 1007.7 hPa | 0 mm | 0 m/s | - | - |
| 1777942931 | 10° C | 74% | 1008.1 hPa | 0 mm | 0 m/s | - | - |
| 1777941128 | 10.56° C | 73% | 1008.4 hPa | 0 mm | 0 m/s | - | - |
| 1777939330 | 11.67° C | 71% | 1008.5 hPa | 0 mm | 0 m/s | - | - |
| 1777937529 | 12.22° C | 68% | 1008.5 hPa | 0 mm | 0 m/s | - | - |
* Rain since midnight (hover to see other rain measurements)
** Current wind speed in m/s (hover to see current wind gust speed)